Weather History for West Palm Beach, FL

Change the Weather History Date:

Sunday, December 30, 2012

  Actual Average Record
Temperature  
Mean Temperature 59 °F 66 °F  
Max Temperature 68 °F 75 °F 86 °F (1950)
Min Temperature 49 °F 58 °F 32 °F (1909)
Degree Days  
Heating Degree Days 6 3  
Month to date heating degree days 31 55  
Since 1 July heating degree days 43 67  
Cooling Degree Days 0 4  
Month to date cooling degree days 213 151  
Year to date cooling degree days 4237 4017  
Growing Degree Days 8 (Base 50)    
Moisture  
Dew Point 49 °F    
Average Humidity 72    
Maximum Humidity 86    
Minimum Humidity 58    
Precipitation  
Precipitation 0.00 in 0.10 in 2.06 in (1949)
Month to date precipitation 1.14 3.27  
Year to date precipitation 78.74 62.22  
Snow  
Snow 0.00 in - - ()
Month to date snowfall 0.0  
Since 1 July snowfall 0.0  
Snow Depth 0.00 in    
Sea Level Pressure  
Sea Level Pressure 30.22 in    
Wind  
Wind Speed 14 mph (North)    
Max Wind Speed 23 mph    
Max Gust Speed 29 mph    
Visibility 10 miles    
Events      
T = Trace of Precipitation, MM = Missing Value Source: NWS Daily Summary

Daily Weather History Graph

Daily Weather History Graph

Search for Another Location

Airport:

Trip Planner

Search our weather history database for the weather conditions in past years. The results will help you decide how hot, cold, wet, or windy it might be!

Date:

Astronomy

Dec. 30, 2012 Rise Set
Actual Time 7:08 AM EST 5:37 PM EST
Civil Twilight 6:43 AM EST 6:03 PM EST
Nautical Twilight 6:14 AM EST 6:32 PM EST
Astronomical Twilight 5:45 AM EST 7:00 PM EST
Moon 7:53 PM EST 8:28 AM EST
Length of Visible Light 11h 20m
Length of Day
10h 29m
Waning Gibbous, 95% of the Moon is Illuminated
Dec 30
Waning Gibbous
Jan 4
Last Quarter
Jan 11
New
Jan 18
First Quarter
Jan 26
Full

Hourly Weather History & Observations

Time (EST) Temp. Dew Point Humidity Pressure Visibility Wind Dir Wind Speed Gust Speed Precip Events Conditions
12:53 AM 57.0 °F 48.9 °F 74% 30.11 in 10.0 mi NW 21.9 mph 28.8 mph N/A   Clear
1:53 AM 55.0 °F 48.0 °F 77% 30.13 in 10.0 mi NW 12.7 mph 21.9 mph N/A   Clear
2:53 AM 54.0 °F 46.9 °F 77% 30.14 in 10.0 mi NW 13.8 mph - N/A   Clear
3:53 AM 53.1 °F 46.9 °F 80% 30.15 in 10.0 mi NNW 13.8 mph - N/A   Clear
4:53 AM 51.1 °F 45.0 °F 80% 30.16 in 10.0 mi NW 16.1 mph - N/A   Clear
5:53 AM 50.0 °F 44.1 °F 80% 30.19 in 10.0 mi NNW 10.4 mph - N/A   Partly Cloudy
6:53 AM 48.9 °F 44.1 °F 83% 30.21 in 10.0 mi NW 15.0 mph - N/A   Scattered Clouds
7:53 AM 50.0 °F 43.0 °F 77% 30.23 in 10.0 mi NNW 12.7 mph - N/A   Mostly Cloudy
8:53 AM 52.0 °F 43.0 °F 71% 30.25 in 10.0 mi NW 12.7 mph - N/A   Mostly Cloudy
9:53 AM 55.9 °F 45.0 °F 67% 30.27 in 10.0 mi NNW 12.7 mph - N/A   Mostly Cloudy
10:53 AM 60.1 °F 46.9 °F 62% 30.27 in 10.0 mi NNW 15.0 mph - N/A   Mostly Cloudy
11:53 AM 62.1 °F 48.9 °F 62% 30.26 in 10.0 mi North 13.8 mph - N/A   Mostly Cloudy
12:53 PM 64.9 °F 51.1 °F 61% 30.23 in 10.0 mi NNW 17.3 mph 21.9 mph N/A   Mostly Cloudy
1:53 PM 66.9 °F 52.0 °F 59% 30.22 in 10.0 mi North 15.0 mph 23.0 mph N/A   Mostly Cloudy
2:53 PM 66.0 °F 53.1 °F 63% 30.23 in 10.0 mi North 16.1 mph 23.0 mph N/A   Mostly Cloudy
3:53 PM 66.0 °F 54.0 °F 65% 30.24 in 10.0 mi North 12.7 mph - N/A   Mostly Cloudy
4:53 PM 66.9 °F 52.0 °F 59% 30.25 in 10.0 mi NNE 11.5 mph 18.4 mph N/A   Mostly Cloudy
5:53 PM 66.9 °F 51.1 °F 57% 30.25 in 10.0 mi NNE 10.4 mph - N/A   Mostly Cloudy
6:53 PM 66.9 °F 51.1 °F 57% 30.26 in 10.0 mi NE 13.8 mph - N/A   Mostly Cloudy
7:53 PM 66.9 °F 52.0 °F 59% 30.27 in 10.0 mi NE 13.8 mph - N/A   Overcast
8:53 PM 66.9 °F 51.1 °F 57% 30.28 in 10.0 mi NE 12.7 mph 18.4 mph N/A   Overcast
9:53 PM 66.9 °F 53.1 °F 61% 30.29 in 10.0 mi ENE 15.0 mph 20.7 mph N/A   Mostly Cloudy
10:53 PM 66.9 °F 51.1 °F 57% 30.28 in 10.0 mi ENE 13.8 mph 18.4 mph N/A   Mostly Cloudy
11:53 PM 66.9 °F 51.1 °F 57% 30.28 in 10.0 mi ENE 12.7 mph 21.9 mph N/A   Mostly Cloudy